Lucas Tedeschi se adueñó de la pole provisional tras la disputa de la primera tanda de clasificación de la Clase 2 del Turismo Nacional, en la segunda fecha de la temporada. El piloto de Las Rosas logró un registro de 1:36.758 para conseguir la pole provisoria en la divisional menor tras dejar al Toyota Etios que alista el Giacone Competición en lo más alto del clasificador.

En el Autódromo San Nicolás Ciudad, el segundo lugar quedó en manos de Facundo Bustos, a 47 centésimas; mientras que Ignacio Procacitto finalizó en el tercer puesto, a 56 centésimas del poleman.

Por su parte, las diez primeras posiciones las completaron Facundo Leanez, Juan Ignacio Canela, Renzo Blotta, Gerónimo Núñez, Emanuel Abdala, Christian Bodrato Mionetto y Tomás Vitar.

    1ra. Clasificación TN Clase 2 – San Nicolás    

Pos. Piloto Marca Vtas. Tiempo Dif.
1 4 LUCAS TEDESCHI TOYOTA ETIOS 1 1:36.758
2 61 FACUNDO BUSTOS VW TREND 1 1:37.235 0.477
3 14 IGNACIO PROCACITTO VW TREND 3 1:37.319 0.561
4 7 FACUNDO LEANEZ TOYOTA ETIOS 4 1:37.530 0.772
5 80 JUAN IGNACIO CANELA FIESTA KINETIC 5 1:37.563 0.805
6 89 RENZO BLOTTA TOYOTA ETIOS 4 1:37.586 0.828
7 3 GERONIMO NUÑEZ TOYOTA ETIOS 3 1:37.600 0.842
8 2 EMANUEL ABDALA FIESTA KINETIC 5 1:37.663 0.905
9 113 CHRISTIAN BODRATO MIONETTO TOYOTA ETIOS 4 1:37.689 0.931
10 140 TOMAS VITAR RENAULT CLIO 5 1:37.719 0.961
11 199 JUAN IGNACIO TORRES CHEVROLET CORSA 5 1:37.749 0.991
12 84 LUCAS YEROBI FIESTA KINETIC 5 1:37.766 1.008
13 79 MARCO VERONESI TOYOTA ETIOS 4 1:37.798 1.040
14 23 DAMIAN KIRSTEIN PEUGEOT 208 4 1:37.800 1.042
15 9 CHRISTIAN ABDALA TOYOTA ETIOS 5 1:37.881 1.123
16 56 GASTON GRASSO TOYOTA ETIOS 5 1:37.909 1.151
17 116 ALEJANDRO TORRISI NISSAN MARCH 5 1:38.003 1.245
18 22 MARCOS FERNANDEZ NISSAN MARCH 4 1:38.030 1.272
19 75 JOSE LUIS ARRATE TOYOTA ETIOS 5 1:38.059 1.301
20 35 SERGIO FERNANDEZ NISSAN MARCH 4 1:38.112 1.354
21 21 FERNANDO GOMEZ FREDES NISSAN MARCH 5 1:38.151 1.393
22 50 MAXIMILIANO FONTANA VW TREND 5 1:38.156 1.398
23 15 MIGUEL CIAURRO VW TREND 4 1:38.185 1.427
24 151 DIEGO CHEVALLEY TOYOTA ETIOS 5 1:38.190 1.432
25 16 DIEGO LEANEZ TOYOTA ETIOS 5 1:38.230 1.472
26 100 MAURO SALVI TOYOTA ETIOS 5 1:38.306 1.548
27 121 NAZARENO BEGUIRISTAIN FIAT ARGO 5 1:38.443 1.685
28 98 ALEX CONCI FIESTA KINETIC 4 1:38.448 1.690
29 8 SEBASTIAN PEREZ CHEVROLET ONIX 5 1:38.458 1.700
30 37 GABRIEL SCORDIA FIAT ARGO 5 1:38.496 1.738
31 10 ALEJO BORGIANI VW TREND 5 1:38.524 1.766
32 30 VALDERREY ALEJANDRO TOYOTA ETIOS 5 1:38.581 1.823
33 28 MATEO NUÑEZ NISSAN MARCH 5 1:38.603 1.845
34 55 MARCELO GUEVARA NISSAN MARCH 3 1:38.804 2.046
35 48 RICARDO SALE FIESTA KINETIC 5 1:39.246 2.488
36 36 SANDRO ABDALA RENAULT CLIO 5 1:39.492 2.734
37 114 PABLO ORTEGA FIAT ARGO 2 1:56.712 19.954
38 154 FACUNDO ROTONDO FIESTA KINETIC 1 2:39.406 1:02.648
Sin tiempos Autos Nro. 26 y 125

S.B

Compartir